Weather History for Beaumont / Port Arthur, TX

Change the Weather History Date:

Tuesday, May 27, 2014

  Actual Average (KBPT) Record (KBPT)
Temperature  
Mean Temperature 72 °F 78 °F  
Max Temperature 78 °F 87 °F 100 °F (1905)
Min Temperature 65 °F 70 °F 52 °F (1961)
Degree Days  
Heating Degree Days 0 0  
Month to date heating degree days 0  
Since 1 July heating degree days 1400  
Cooling Degree Days 6 13  
Month to date cooling degree days 284  
Year to date cooling degree days 511  
Growing Degree Days 22 (Base 50)    
Moisture  
Dew Point 70 °F    
Average Humidity 94    
Maximum Humidity 100    
Minimum Humidity 76    
Precipitation  
Precipitation 0.00 in 0.18 in 2.01 in (1986)
Month to date precipitation 4.53  
Year to date precipitation 20.11  
Snow  
Snow 0.00 in 0.00 in 0.00 in ()
Month to date snowfall 0.0  
Since 1 July snowfall T  
Snow Depth -    
Sea Level Pressure  
Sea Level Pressure 29.96 in    
Wind  
Wind Speed 6 mph (SE)    
Max Wind Speed 15 mph    
Max Gust Speed 24 mph    
Visibility 9 miles    
Events Rain , Thunderstorm    
T = Trace of Precipitation, MM = Missing Value Source: NWS Daily Summary

Daily Weather History Graph

Daily Weather History Graph

Search for Another Location

Airport:

Trip Planner

Search our weather history database for the weather conditions in past years. The results will help you decide how hot, cold, wet, or windy it might be!

Date:

Astronomy

May. 27, 2014 Rise Set
Actual Time 6:17 AM CDT 8:10 PM CDT
Civil Twilight 5:50 AM CDT 8:37 PM CDT
Nautical Twilight 5:18 AM CDT 9:10 PM CDT
Astronomical Twilight 4:43 AM CDT 9:44 PM CDT
Moon 5:33 AM CDT (5/27) 7:19 PM CDT (5/27)
Length of Visible Light 14h 47m
Length of Day
13h 53m
Waning Crescent, 1% of the Moon is Illuminated
May 27
Waning Crescent
May 28
New
Jun 5
First Quarter
Jun 12
Full
Jun 19
Last Quarter

Hourly Weather History & Observations

Time (CDT) Temp. Dew Point Humidity Pressure Visibility Wind Dir Wind Speed Gust Speed Precip Events Conditions
12:15 AM 73.6 °F 72.7 °F 97% 30.02 in 7.0 mi SSE 3.5 mph - N/A   Scattered Clouds
12:35 AM 73.6 °F 72.9 °F 98% 30.02 in 10.0 mi SSE 4.6 mph - N/A   Clear
1:15 AM 74.3 °F 73.0 °F 96% 30.02 in 10.0 mi SSE 6.9 mph - N/A   Scattered Clouds
1:35 AM 74.3 °F 73.0 °F 96% 30.02 in 10.0 mi SSE 5.8 mph - N/A   Mostly Cloudy
1:55 AM 74.3 °F 73.2 °F 96% 30.02 in 10.0 mi SSE 4.6 mph - N/A   Mostly Cloudy
2:15 AM 74.3 °F 73.4 °F 97% 30.02 in 10.0 mi SE 5.8 mph - N/A   Mostly Cloudy
2:35 AM 74.7 °F 73.4 °F 96% 30.02 in 10.0 mi SSE 4.6 mph - N/A   Mostly Cloudy
2:55 AM 74.5 °F 73.4 °F 96% 30.03 in 10.0 mi South 4.6 mph - N/A   Overcast
3:15 AM 74.7 °F 73.4 °F 96% 30.02 in 10.0 mi SSE 3.5 mph - N/A   Overcast
3:35 AM 74.5 °F 73.4 °F 96% 30.01 in 10.0 mi SSE 6.9 mph - N/A   Overcast
3:55 AM 74.5 °F 73.4 °F 96% 30.00 in 10.0 mi SSE 5.8 mph - N/A   Scattered Clouds
4:15 AM 74.5 °F 73.4 °F 96% 29.98 in 10.0 mi SSE 10.4 mph - N/A   Mostly Cloudy
4:35 AM 74.5 °F 73.2 °F 96% 29.98 in 10.0 mi South 9.2 mph 16.1 mph N/A   Mostly Cloudy
4:55 AM 74.5 °F 73.4 °F 96% 29.97 in 10.0 mi SSE 9.2 mph - N/A   Mostly Cloudy
5:15 AM 74.5 °F 73.0 °F 95% 29.96 in 10.0 mi SSE 8.1 mph - N/A   Mostly Cloudy
5:35 AM 74.3 °F 73.2 °F 96% 29.95 in 10.0 mi South 8.1 mph - N/A Thunderstorm Overcast
5:55 AM 74.7 °F 73.2 °F 95% 29.96 in 10.0 mi SSE 8.1 mph - N/A   Overcast
6:15 AM 74.7 °F 73.4 °F 96% 29.95 in 10.0 mi SE 5.8 mph - N/A   Overcast
6:35 AM 74.8 °F 73.2 °F 95% 29.96 in 10.0 mi SSE 5.8 mph - N/A Rain Light Rain
6:55 AM 75.2 °F 73.4 °F 94% 29.96 in 10.0 mi South 9.2 mph - N/A   Overcast
7:15 AM 75.4 °F 73.4 °F 94% 29.97 in 10.0 mi SSE 6.9 mph - N/A   Overcast
7:35 AM 75.6 °F 73.4 °F 93% 29.97 in 10.0 mi SSE 9.2 mph - N/A Thunderstorm Overcast
7:55 AM 75.6 °F 73.4 °F 93% 29.95 in 10.0 mi SSE 10.4 mph - N/A   Overcast
8:15 AM 75.6 °F 73.4 °F 93% 29.96 in 10.0 mi SSE 11.5 mph - N/A   Overcast
8:35 AM 75.6 °F 73.0 °F 92% 29.95 in 10.0 mi SSE 10.4 mph - N/A   Overcast
8:55 AM 75.6 °F 72.9 °F 91% 29.96 in 10.0 mi SE 10.4 mph - N/A Thunderstorm Overcast
9:15 AM 72.5 °F 67.3 °F 84% 29.98 in 10.0 mi WSW 11.5 mph 19.6 mph N/A Thunderstorm Thunderstorm
9:35 AM 68.4 °F 67.1 °F 96% 30.00 in 10.0 mi West 12.7 mph - N/A Rain , Thunderstorm Rain
9:55 AM 67.1 °F 66.4 °F 98% 30.00 in 3.0 mi NW 13.8 mph 24.2 mph N/A Rain , Thunderstorm Rain
10:15 AM 66.2 °F 65.3 °F 97% 30.01 in 4.0 mi NNW 15.0 mph - N/A Rain , Thunderstorm Thunderstorms and Rain
10:35 AM 65.7 °F 64.9 °F 98% 30.03 in 7.0 mi NNW 8.1 mph - N/A Rain Rain
10:55 AM 65.7 °F 64.9 °F 98% 30.03 in 7.0 mi NW 5.8 mph - N/A Rain , Thunderstorm Rain
11:15 AM 66.2 °F 65.5 °F 98% 30.04 in 10.0 mi NNW 6.9 mph - N/A Rain Light Rain
11:35 AM 66.4 °F 65.3 °F 96% 30.03 in 7.0 mi North 9.2 mph - N/A Rain Light Rain
11:55 AM 67.3 °F 65.5 °F 94% 30.03 in 10.0 mi ENE 6.9 mph - N/A Rain Rain
12:15 PM 67.1 °F 65.5 °F 95% 29.98 in 10.0 mi NE 9.2 mph - N/A Rain Light Rain
12:35 PM 67.5 °F 65.5 °F 93% 29.95 in 10.0 mi NE 12.7 mph - N/A   Light Drizzle
1:15 PM 69.1 °F 67.5 °F 95% 29.94 in 10.0 mi ESE 8.1 mph 17.3 mph N/A Rain Light Rain
1:35 PM 69.8 °F 67.6 °F 93% 29.95 in 10.0 mi ESE 8.1 mph - N/A   Overcast
1:55 PM 72.7 °F 69.3 °F 89% 29.94 in 10.0 mi SE 8.1 mph 16.1 mph N/A   Mostly Cloudy
2:15 PM 74.5 °F 70.2 °F 86% 29.94 in 10.0 mi SSE 4.6 mph - N/A   Scattered Clouds
2:35 PM 76.5 °F 70.2 °F 81% 29.94 in 10.0 mi SSE 3.5 mph - N/A   Mostly Cloudy
2:55 PM 78.1 °F 69.8 °F 76% 29.96 in 10.0 mi NW 4.6 mph - N/A   Mostly Cloudy
3:15 PM 77.4 °F 70.2 °F 78% 29.96 in 10.0 mi WNW 5.8 mph - N/A   Mostly Cloudy
3:35 PM 76.3 °F 69.8 °F 80% 29.95 in 10.0 mi NNW 4.6 mph - N/A   Mostly Cloudy
3:55 PM 75.2 °F 69.4 °F 82% 29.96 in 10.0 mi NW 6.9 mph - N/A Thunderstorm Overcast
4:15 PM 74.8 °F 68.9 °F 82% 29.96 in 10.0 mi NW 8.1 mph - N/A   Overcast
4:35 PM 73.4 °F 68.7 °F 85% 29.97 in 10.0 mi NW 6.9 mph - N/A Rain Light Rain
4:55 PM 71.2 °F 69.3 °F 93% 29.94 in 10.0 mi NW 10.4 mph - N/A Thunderstorm Overcast
5:15 PM 70.7 °F 69.1 °F 95% 29.94 in 10.0 mi NW 6.9 mph - N/A Rain Light Rain
5:35 PM 70.9 °F 69.1 °F 94% 29.92 in 10.0 mi NE 4.6 mph - N/A   Light Drizzle
5:55 PM 70.7 °F 68.9 °F 94% 29.92 in 10.0 mi Calm Calm - N/A   Overcast
6:15 PM 70.7 °F 69.4 °F 96% 29.90 in 10.0 mi East 4.6 mph - N/A Rain Light Rain
6:35 PM 70.7 °F 69.8 °F 97% 29.94 in 10.0 mi NW 9.2 mph 18.4 mph N/A Rain , Thunderstorm Heavy Thunderstorms and Rain
6:55 PM 70.7 °F 70.2 °F 98% 29.90 in 10.0 mi ESE 8.1 mph - N/A Rain , Thunderstorm Light Thunderstorms and Rain
7:15 PM 70.9 °F 70.2 °F 98% 29.91 in 10.0 mi Calm Calm - N/A Thunderstorm Overcast
7:35 PM 71.1 °F 70.2 °F 97% 29.90 in 10.0 mi ESE 3.5 mph - N/A Thunderstorm Mostly Cloudy
7:55 PM 70.7 °F 69.8 °F 97% 29.90 in 10.0 mi Calm Calm - N/A Thunderstorm Clear
8:15 PM 69.8 °F 69.1 °F 98% 29.91 in 10.0 mi Calm Calm - N/A   Clear
8:35 PM 68.9 °F 68.7 °F 99% 29.92 in 10.0 mi Calm Calm - N/A   Scattered Clouds
8:55 PM 68.0 °F 68.0 °F 100% 29.91 in 10.0 mi Calm Calm - N/A   Scattered Clouds
9:15 PM 67.5 °F 67.3 °F 99% 29.91 in 10.0 mi Calm Calm - N/A   Scattered Clouds
9:35 PM 67.1 °F 67.1 °F 100% 29.91 in 1.2 mi Calm Calm - N/A   Scattered Clouds
9:55 PM 66.7 °F 66.7 °F 100% 29.92 in 0.8 mi Calm Calm - N/A   Mostly Cloudy
10:15 PM 66.7 °F 66.7 °F 100% 29.93 in 5.0 mi North 3.5 mph - N/A   Scattered Clouds
10:35 PM 67.3 °F 67.3 °F 100% 29.93 in 10.0 mi North 5.8 mph - N/A   Scattered Clouds
10:55 PM 66.4 °F 66.4 °F 100% 29.93 in 10.0 mi Calm Calm - N/A   Mostly Cloudy
11:15 PM 66.4 °F 66.2 °F 99% 29.92 in 10.0 mi NE 3.5 mph - N/A   Mostly Cloudy
11:35 PM 66.2 °F 66.2 °F 100% 29.92 in 10.0 mi Calm Calm - N/A   Scattered Clouds
11:55 PM 66.4 °F 66.0 °F 99% 29.91 in 10.0 mi Calm Calm - N/A   Scattered Clouds